JAL3106 RJCC-RJGG

Flight info

Callsign JAL3106
Flight time 1h 35m
Altitude 34000
Route DALBI Y120 TAPPI Y12 MBE Y121 SWING
Aircraft B738/M-SDE2E3FGHIRWXY/LB1

Departure

Time 2026-05-07 03:07
Airport New Chitose Airport (RJCC)

Arrival

Time 2026-05-07 04:43
Airport Chubu Centrair International Airport (RJGG)
Time Latitude Longitude Altitude Speed Heading
2026-05-07 02:32 42.78626 141.68228 88 ft 0 kts 296°
2026-05-07 02:58 42.78626 141.68230 89 ft 1 kts 296°
2026-05-07 02:59 42.78618 141.68251 90 ft 3 kts 295°
2026-05-07 02:59 42.78610 141.68276 87 ft 3 kts 294°
2026-05-07 02:59 42.78602 141.68301 88 ft 3 kts 294°
2026-05-07 02:59 42.78594 141.68326 89 ft 3 kts 297°
2026-05-07 03:00 42.78583 141.68349 89 ft 3 kts 315°
2026-05-07 03:00 42.78572 141.68362 90 ft 2 kts
2026-05-07 03:00 42.78568 141.68361 89 ft 0 kts 22°
2026-05-07 03:03 42.78582 141.68369 86 ft 5 kts 20°
2026-05-07 03:03 42.78644 141.68395 87 ft 13 kts 14°
2026-05-07 03:03 42.78754 141.68414 89 ft 18 kts 358°
2026-05-07 03:03 42.78876 141.68417 89 ft 12 kts 31°
2026-05-07 03:04 42.78898 141.68462 89 ft 5 kts 69°
2026-05-07 03:04 42.78914 141.68524 90 ft 9 kts 70°
2026-05-07 03:04 42.78928 141.68568 91 ft 0 kts 65°
2026-05-07 03:05 42.78932 141.68579 90 ft 4 kts 65°
2026-05-07 03:05 42.78952 141.68649 92 ft 8 kts 90°
2026-05-07 03:05 42.78902 141.68739 90 ft 17 kts 140°
2026-05-07 03:05 42.78804 141.68818 91 ft 0 kts 173°
2026-05-07 03:06 42.78802 141.68818 91 ft 0 kts 173°
2026-05-07 03:06 42.78694 141.68835 90 ft 54 kts 173°
2026-05-07 03:07 42.77979 141.68963 88 ft 148 kts 170°
2026-05-07 03:07 42.76794 141.69139 569 ft 189 kts 171°
2026-05-07 03:07 42.75490 141.69332 1779 ft 184 kts 175°
2026-05-07 03:07 42.74241 141.69623 3182 ft 183 kts 176°
2026-05-07 03:08 42.72903 141.69928 3962 ft 208 kts 178°
2026-05-07 03:08 42.71397 141.70238 4608 ft 228 kts 178°
2026-05-07 03:08 42.69734 141.70570 5344 ft 253 kts 178°
2026-05-07 03:08 42.67958 141.70934 6473 ft 261 kts 178°
2026-05-07 03:09 42.66152 141.71279 7677 ft 262 kts 184°
2026-05-07 03:09 42.64390 141.70877 8824 ft 255 kts 209°
2026-05-07 03:09 42.62974 141.69493 10019 ft 252 kts 231°
2026-05-07 03:09 42.62025 141.67475 10675 ft 271 kts 251°
2026-05-07 03:10 42.61569 141.64850 10984 ft 301 kts 257°
2026-05-07 03:10 42.61181 141.61957 10988 ft 315 kts 259°
2026-05-07 03:10 42.60812 141.59009 10992 ft 317 kts 259°
2026-05-07 03:10 42.60447 141.56098 10994 ft 316 kts 259°
2026-05-07 03:11 42.60073 141.53157 10994 ft 316 kts 258°
2026-05-07 03:11 42.59690 141.50221 11003 ft 315 kts 258°
2026-05-07 03:11 42.59301 141.47283 11001 ft 315 kts 258°
2026-05-07 03:11 42.58911 141.44360 11003 ft 315 kts 258°
2026-05-07 03:12 42.58524 141.41457 11003 ft 315 kts 258°
2026-05-07 03:12 42.58136 141.38529 11000 ft 315 kts 258°
2026-05-07 03:12 42.57747 141.35602 11004 ft 315 kts 258°
2026-05-07 03:12 42.57354 141.32678 11009 ft 314 kts 258°
2026-05-07 03:13 42.56961 141.29765 11004 ft 314 kts 258°
2026-05-07 03:13 42.56516 141.26876 10998 ft 313 kts 252°
2026-05-07 03:13 42.55694 141.24147 10993 ft 311 kts 246°
2026-05-07 03:13 42.54805 141.21526 11332 ft 310 kts 245°
2026-05-07 03:14 42.53896 141.18824 12069 ft 316 kts 246°
2026-05-07 03:14 42.52991 141.16093 13162 ft 317 kts 246°
2026-05-07 03:14 42.51170 141.10518 14917 ft 328 kts 246°
2026-05-07 03:15 42.50148 141.07732 15770 ft 333 kts 238°
2026-05-07 03:15 42.48667 141.05330 16680 ft 339 kts 229°
2026-05-07 03:15 42.46977 141.03065 17523 ft 344 kts 228°
2026-05-07 03:15 42.45230 141.00779 18319 ft 349 kts 227°
2026-05-07 03:16 42.43469 140.98478 19016 ft 353 kts 227°
2026-05-07 03:16 42.41714 140.96174 19794 ft 356 kts 228°
2026-05-07 03:16 42.39920 140.93807 20524 ft 360 kts 228°
2026-05-07 03:16 42.38117 140.91417 21238 ft 364 kts 228°
2026-05-07 03:17 42.36322 140.89031 21910 ft 367 kts 228°
2026-05-07 03:17 42.34491 140.86596 22588 ft 371 kts 229°
2026-05-07 03:17 42.32636 140.84127 23218 ft 374 kts 229°
2026-05-07 03:17 42.30768 140.81643 23788 ft 378 kts 228°
2026-05-07 03:18 42.28905 140.79167 24320 ft 380 kts 228°
2026-05-07 03:18 42.27011 140.76652 24861 ft 383 kts 228°
2026-05-07 03:18 42.25103 140.74120 25386 ft 385 kts 228°
2026-05-07 03:18 42.23184 140.71576 25894 ft 388 kts 228°
2026-05-07 03:19 42.21251 140.69014 26384 ft 390 kts 228°
2026-05-07 03:19 42.19328 140.66468 26857 ft 393 kts 228°
2026-05-07 03:19 42.17369 140.63873 27334 ft 395 kts 228°
2026-05-07 03:19 42.15396 140.61263 27790 ft 397 kts 228°
2026-05-07 03:20 42.13407 140.58638 28232 ft 400 kts 228°
2026-05-07 03:20 42.11436 140.56049 28718 ft 401 kts 227°
2026-05-07 03:20 42.09241 140.53710 29398 ft 403 kts 218°
2026-05-07 03:20 42.06834 140.51771 30110 ft 402 kts 213°
2026-05-07 03:21 42.04328 140.50167 30684 ft 404 kts 208°
2026-05-07 03:21 42.01627 140.49015 31245 ft 407 kts 203°
2026-05-07 03:21 41.98895 140.48009 31866 ft 404 kts 202°
2026-05-07 03:21 41.96186 140.47031 32473 ft 401 kts 203°
2026-05-07 03:22 41.93479 140.46048 33000 ft 400 kts 203°
2026-05-07 03:22 41.90830 140.45074 33497 ft 398 kts 204°
2026-05-07 03:22 41.88153 140.44079 33883 ft 398 kts 204°
2026-05-07 03:23 41.82833 140.42077 33888 ft 396 kts 204°
2026-05-07 03:23 41.77534 140.40085 33895 ft 398 kts 204°
2026-05-07 03:24 41.72170 140.38081 33900 ft 399 kts 204°
2026-05-07 03:24 41.66826 140.36090 33908 ft 400 kts 205°
2026-05-07 03:25 41.61465 140.34095 33903 ft 399 kts 205°
2026-05-07 03:25 41.56102 140.32109 33902 ft 398 kts 204°
2026-05-07 03:26 41.50772 140.30151 33907 ft 396 kts 205°
2026-05-07 03:26 41.45483 140.28209 33903 ft 396 kts 205°
2026-05-07 03:27 41.40155 140.26252 33904 ft 396 kts 205°
2026-05-07 03:27 41.34867 140.24312 33914 ft 396 kts 205°
2026-05-07 03:28 41.29536 140.22359 33920 ft 397 kts 205°
2026-05-07 03:28 41.24202 140.20408 33926 ft 398 kts 205°
2026-05-07 03:28 41.21564 140.19445 34125 ft 396 kts 205°
2026-05-07 03:29 41.18894 140.18470 34315 ft 397 kts 205°
2026-05-07 03:29 41.16208 140.17491 34513 ft 399 kts 205°
2026-05-07 03:29 41.13559 140.16528 34705 ft 399 kts 205°
2026-05-07 03:29 41.10869 140.15571 34910 ft 400 kts 204°
2026-05-07 03:30 41.08170 140.14637 35108 ft 400 kts 204°
2026-05-07 03:30 41.06382 140.14024 35240 ft 400 kts 204°
2026-05-07 03:30 41.03680 140.13105 35440 ft 400 kts 204°
2026-05-07 03:30 41.00984 140.12189 35646 ft 399 kts 204°
2026-05-07 03:31 40.98289 140.11264 35847 ft 398 kts 205°
2026-05-07 03:31 40.92942 140.09425 35916 ft 399 kts 204°
2026-05-07 03:32 40.87562 140.07577 35916 ft 398 kts 204°
2026-05-07 03:32 40.82232 140.05747 35922 ft 397 kts 204°
2026-05-07 03:33 40.76872 140.03906 35924 ft 397 kts 204°
2026-05-07 03:33 40.71540 140.02077 35934 ft 398 kts 204°
2026-05-07 03:34 40.66148 140.00230 35937 ft 400 kts 204°
2026-05-07 03:34 40.60785 139.98397 35940 ft 401 kts 204°
2026-05-07 03:35 40.55369 139.96548 35943 ft 402 kts 204°
2026-05-07 03:35 40.49937 139.94693 35954 ft 403 kts 204°
2026-05-07 03:36 40.44530 139.92858 35941 ft 403 kts 204°
2026-05-07 03:36 40.39104 139.91019 35943 ft 403 kts 203°
2026-05-07 03:37 40.33675 139.89179 35949 ft 403 kts 203°
2026-05-07 03:37 40.28223 139.87329 35957 ft 403 kts 203°
2026-05-07 03:38 40.22809 139.85492 35962 ft 403 kts 203°
2026-05-07 03:38 40.17382 139.83652 35960 ft 404 kts 203°
2026-05-07 03:39 40.11930 139.81806 35965 ft 404 kts 203°
2026-05-07 03:39 40.06471 139.79958 35964 ft 404 kts 203°
2026-05-07 03:40 40.01046 139.78131 35964 ft 405 kts 203°
2026-05-07 03:40 39.95567 139.76302 35971 ft 405 kts 203°
2026-05-07 03:41 39.90119 139.74497 35976 ft 406 kts 202°
2026-05-07 03:41 39.84617 139.72670 35963 ft 408 kts 202°
2026-05-07 03:42 39.79097 139.70837 35967 ft 408 kts 202°
2026-05-07 03:42 39.73618 139.69019 35969 ft 408 kts 202°
2026-05-07 03:43 39.68133 139.67201 35970 ft 408 kts 202°
2026-05-07 03:43 39.62606 139.65372 35971 ft 408 kts 202°
2026-05-07 03:44 39.57113 139.63557 35970 ft 408 kts 202°
2026-05-07 03:44 39.51593 139.61736 35973 ft 409 kts 202°
2026-05-07 03:45 39.46113 139.59931 35969 ft 409 kts 202°
2026-05-07 03:45 39.40589 139.58115 35970 ft 409 kts 202°
2026-05-07 03:46 39.35061 139.56300 35971 ft 409 kts 202°
2026-05-07 03:46 39.29549 139.54493 35972 ft 410 kts 202°
2026-05-07 03:47 39.24037 139.52690 35973 ft 410 kts 202°
2026-05-07 03:47 39.18500 139.50881 35977 ft 410 kts 202°
2026-05-07 03:48 39.12991 139.49084 35977 ft 410 kts 202°
2026-05-07 03:48 39.07426 139.47272 35981 ft 410 kts 201°
2026-05-07 03:49 39.01908 139.45479 35977 ft 410 kts 201°
2026-05-07 03:49 38.96383 139.43680 35976 ft 410 kts 201°
2026-05-07 03:50 38.90829 139.41882 35973 ft 410 kts 201°
2026-05-07 03:50 38.85279 139.40090 35977 ft 410 kts 201°
2026-05-07 03:51 38.79762 139.38308 35979 ft 410 kts 201°
2026-05-07 03:51 38.74240 139.36528 35978 ft 410 kts 201°
2026-05-07 03:52 38.68695 139.34742 35987 ft 410 kts 201°
2026-05-07 03:52 38.63155 139.32961 35983 ft 410 kts 201°
2026-05-07 03:53 38.57612 139.31181 35982 ft 410 kts 201°
2026-05-07 03:53 38.52111 139.29418 35983 ft 410 kts 201°
2026-05-07 03:53 38.49341 139.28531 35867 ft 411 kts 201°
2026-05-07 03:54 38.46568 139.27645 35606 ft 409 kts 201°
2026-05-07 03:54 38.43811 139.26765 35361 ft 408 kts 201°
2026-05-07 03:54 38.41052 139.25883 35126 ft 409 kts 201°
2026-05-07 03:54 38.38280 139.24997 34888 ft 410 kts 201°
2026-05-07 03:55 38.35530 139.24119 34649 ft 411 kts 201°
2026-05-07 03:55 38.32749 139.23233 34419 ft 412 kts 201°
2026-05-07 03:55 38.29962 139.22345 34183 ft 412 kts 201°
2026-05-07 03:55 38.27166 139.21455 34049 ft 415 kts 201°
2026-05-07 03:56 38.24396 139.20574 34003 ft 414 kts 201°
2026-05-07 03:56 38.18799 139.18798 33991 ft 413 kts 201°
2026-05-07 03:57 38.13234 139.17031 33991 ft 414 kts 201°
2026-05-07 03:57 38.07629 139.15253 33993 ft 415 kts 201°
2026-05-07 03:58 38.02017 139.13473 33991 ft 416 kts 200°
2026-05-07 03:58 37.96443 139.11637 33982 ft 412 kts 205°
2026-05-07 03:59 37.91329 139.08571 33995 ft 405 kts 214°
2026-05-07 03:59 37.86369 139.05153 33992 ft 405 kts 214°
2026-05-07 04:00 37.81432 139.01773 33991 ft 406 kts 214°
2026-05-07 04:00 37.76440 138.98380 33991 ft 407 kts 213°
2026-05-07 04:01 37.71432 138.94987 33993 ft 408 kts 213°
2026-05-07 04:01 37.66446 138.91615 33993 ft 408 kts 213°
2026-05-07 04:02 37.61431 138.88228 33990 ft 408 kts 213°
2026-05-07 04:02 37.56409 138.84839 33990 ft 409 kts 213°
2026-05-07 04:03 37.51417 138.81474 33992 ft 409 kts 213°
2026-05-07 04:03 37.46388 138.78087 33994 ft 409 kts 213°
2026-05-07 04:04 37.41348 138.74708 33998 ft 410 kts 213°
2026-05-07 04:04 37.36303 138.71338 34001 ft 410 kts 213°
2026-05-07 04:05 37.31284 138.67985 34003 ft 411 kts 213°
2026-05-07 04:05 37.26221 138.64601 34010 ft 411 kts 213°
2026-05-07 04:06 37.21184 138.61235 33997 ft 412 kts 213°
2026-05-07 04:06 37.16117 138.57854 34002 ft 412 kts 213°
2026-05-07 04:07 37.11073 138.54501 34008 ft 413 kts 213°
2026-05-07 04:07 37.05983 138.51140 34003 ft 413 kts 213°
2026-05-07 04:08 37.00882 138.47773 34003 ft 414 kts 213°
2026-05-07 04:08 36.95806 138.44420 34002 ft 415 kts 212°
2026-05-07 04:09 36.90685 138.41037 33994 ft 416 kts 212°
2026-05-07 04:09 36.85586 138.37673 33988 ft 416 kts 212°
2026-05-07 04:10 36.80456 138.34300 33989 ft 416 kts 212°
2026-05-07 04:10 36.75323 138.30931 33985 ft 416 kts 212°
2026-05-07 04:11 36.70202 138.27568 33974 ft 416 kts 212°
2026-05-07 04:11 36.65086 138.24207 33965 ft 417 kts 212°
2026-05-07 04:12 36.59958 138.20843 33956 ft 414 kts 212°
2026-05-07 04:12 36.54894 138.17524 33952 ft 411 kts 212°
2026-05-07 04:13 36.49835 138.14205 33630 ft 412 kts 212°
2026-05-07 04:13 36.47326 138.12568 33215 ft 402 kts 212°
2026-05-07 04:13 36.44871 138.10970 32839 ft 394 kts 212°
2026-05-07 04:13 36.42445 138.09395 32410 ft 389 kts 211°
2026-05-07 04:14 36.40087 138.07869 31987 ft 384 kts 211°
2026-05-07 04:14 36.37723 138.06338 31591 ft 379 kts 211°
2026-05-07 04:14 36.35397 138.04830 31195 ft 374 kts 211°
2026-05-07 04:14 36.33127 138.03359 30804 ft 370 kts 210°
2026-05-07 04:15 36.30849 138.01882 30421 ft 366 kts 210°
2026-05-07 04:15 36.28596 138.00421 30031 ft 362 kts 209°
2026-05-07 04:15 36.26368 137.98978 29583 ft 359 kts 210°
2026-05-07 04:15 36.24186 137.97563 29160 ft 356 kts 210°
2026-05-07 04:16 36.22004 137.96150 28763 ft 351 kts 210°
2026-05-07 04:16 36.19823 137.94739 28362 ft 357 kts 210°
2026-05-07 04:16 36.17571 137.93285 27966 ft 370 kts 210°
2026-05-07 04:16 36.15291 137.91770 27524 ft 370 kts 213°
2026-05-07 04:17 36.13178 137.90029 26985 ft 366 kts 217°
2026-05-07 04:17 36.11116 137.88219 26551 ft 361 kts 217°
2026-05-07 04:17 36.09086 137.86416 26126 ft 355 kts 218°
2026-05-07 04:17 36.07755 137.85237 25854 ft 352 kts 217°
2026-05-07 04:18 36.05134 137.82926 25346 ft 345 kts 217°
2026-05-07 04:18 36.03189 137.81221 24979 ft 341 kts 217°
2026-05-07 04:18 36.01879 137.80077 24706 ft 340 kts 217°
2026-05-07 04:18 35.99953 137.78398 24324 ft 337 kts 218°
2026-05-07 04:19 35.98047 137.76738 23945 ft 338 kts 217°
2026-05-07 04:19 35.96123 137.75064 23562 ft 337 kts 218°
2026-05-07 04:19 35.94216 137.73404 23128 ft 342 kts 217°
2026-05-07 04:19 35.92242 137.71690 22735 ft 349 kts 217°
2026-05-07 04:20 35.90255 137.69972 22314 ft 347 kts 217°
2026-05-07 04:20 35.88273 137.68257 21746 ft 346 kts 217°
2026-05-07 04:20 35.86329 137.66581 21265 ft 343 kts 217°
2026-05-07 04:21 35.82468 137.63254 20497 ft 334 kts 217°
2026-05-07 04:21 35.80574 137.61619 20131 ft 330 kts 217°
2026-05-07 04:21 35.78704 137.60003 19830 ft 326 kts 217°
2026-05-07 04:21 35.76856 137.58407 19597 ft 325 kts 217°
2026-05-07 04:22 35.74979 137.56785 19364 ft 332 kts 217°
2026-05-07 04:22 35.73103 137.55169 19150 ft 335 kts 217°
2026-05-07 04:22 35.71186 137.53523 18920 ft 334 kts 217°
2026-05-07 04:22 35.69287 137.51889 18694 ft 332 kts 217°
2026-05-07 04:23 35.67395 137.50263 18471 ft 331 kts 217°
2026-05-07 04:23 35.65510 137.48641 18239 ft 330 kts 217°
2026-05-07 04:23 35.63630 137.47021 17969 ft 329 kts 217°
2026-05-07 04:23 35.61778 137.45424 17702 ft 328 kts 217°
2026-05-07 04:24 35.59903 137.43811 17453 ft 326 kts 216°
2026-05-07 04:24 35.58044 137.42216 17185 ft 325 kts 216°
2026-05-07 04:24 35.56187 137.40623 16946 ft 322 kts 216°
2026-05-07 04:24 35.54372 137.39066 16702 ft 321 kts 216°
2026-05-07 04:25 35.52533 137.37492 16451 ft 320 kts 216°
2026-05-07 04:25 35.50704 137.35927 16184 ft 318 kts 216°
2026-05-07 04:25 35.48895 137.34376 15954 ft 317 kts 216°
2026-05-07 04:25 35.47107 137.32843 15713 ft 316 kts 216°
2026-05-07 04:26 35.45307 137.31298 15474 ft 315 kts 216°
2026-05-07 04:26 35.43513 137.29760 15235 ft 313 kts 216°
2026-05-07 04:26 35.41748 137.28250 14997 ft 312 kts 216°
2026-05-07 04:26 35.39968 137.26732 14763 ft 310 kts 216°
2026-05-07 04:27 35.38199 137.25219 14524 ft 309 kts 216°
2026-05-07 04:27 35.36436 137.23706 14290 ft 307 kts 216°
2026-05-07 04:27 35.34689 137.22204 14078 ft 306 kts 216°
2026-05-07 04:27 35.32973 137.20728 13835 ft 304 kts 216°
2026-05-07 04:28 35.31238 137.19235 13582 ft 303 kts 216°
2026-05-07 04:28 35.29509 137.17746 13320 ft 302 kts 216°
2026-05-07 04:28 35.27808 137.16283 13068 ft 302 kts 216°
2026-05-07 04:28 35.26086 137.14801 12812 ft 301 kts 216°
2026-05-07 04:29 35.24376 137.13330 12557 ft 300 kts 216°
2026-05-07 04:29 35.22670 137.11864 12309 ft 299 kts 216°
2026-05-07 04:29 35.20963 137.10397 12059 ft 298 kts 216°
2026-05-07 04:29 35.19270 137.08943 11812 ft 297 kts 216°
2026-05-07 04:30 35.17598 137.07507 11567 ft 296 kts 216°
2026-05-07 04:30 35.15909 137.06058 11328 ft 296 kts 216°
2026-05-07 04:30 35.14223 137.04612 11115 ft 296 kts 216°
2026-05-07 04:30 35.12526 137.03158 10761 ft 298 kts 216°
2026-05-07 04:31 35.10842 137.01715 10451 ft 291 kts 216°
2026-05-07 04:31 35.09218 137.00324 10146 ft 286 kts 216°
2026-05-07 04:31 35.07599 136.98939 9844 ft 281 kts 216°
2026-05-07 04:31 35.06008 136.97577 9504 ft 277 kts 216°
2026-05-07 04:32 35.04433 136.96229 9164 ft 273 kts 216°
2026-05-07 04:32 35.02901 136.94919 8837 ft 270 kts 216°
2026-05-07 04:32 35.01368 136.93608 8509 ft 267 kts 216°
2026-05-07 04:32 34.99851 136.92312 8182 ft 265 kts 216°
2026-05-07 04:33 34.98350 136.91030 7866 ft 262 kts 216°
2026-05-07 04:33 34.96857 136.89754 7542 ft 260 kts 216°
2026-05-07 04:33 34.95381 136.88493 7224 ft 258 kts 216°
2026-05-07 04:33 34.93927 136.87252 6923 ft 257 kts 216°
2026-05-07 04:34 34.92454 136.85995 6611 ft 257 kts 216°
2026-05-07 04:34 34.90985 136.84743 6299 ft 256 kts 216°
2026-05-07 04:34 34.89522 136.83499 5977 ft 255 kts 216°
2026-05-07 04:34 34.88084 136.82277 5667 ft 255 kts 216°
2026-05-07 04:35 34.86653 136.81003 5322 ft 254 kts 224°
2026-05-07 04:35 34.85674 136.79243 5065 ft 249 kts 248°
2026-05-07 04:35 34.85222 136.77267 5020 ft 236 kts 257°
2026-05-07 04:35 34.84911 136.75335 5005 ft 229 kts 258°
2026-05-07 04:36 34.84698 136.73424 4994 ft 228 kts 273°
2026-05-07 04:36 34.85173 136.71602 5012 ft 230 kts 298°
2026-05-07 04:36 34.86236 136.70103 4789 ft 243 kts 320°
2026-05-07 04:36 34.87762 136.69192 4524 ft 244 kts 342°
2026-05-07 04:37 34.89387 136.68747 4311 ft 240 kts 347°
2026-05-07 04:37 34.91020 136.68374 4104 ft 236 kts 347°
2026-05-07 04:37 34.92627 136.68005 3888 ft 230 kts 347°
2026-05-07 04:37 34.94161 136.67653 3703 ft 216 kts 349°
2026-05-07 04:38 34.95650 136.67613 3573 ft 214 kts
2026-05-07 04:38 34.97127 136.67741 3531 ft 216 kts
2026-05-07 04:38 34.98530 136.68360 3494 ft 217 kts 36°
2026-05-07 04:38 34.99430 136.69805 3499 ft 218 kts 70°
2026-05-07 04:39 34.99558 136.71638 3515 ft 219 kts 95°
2026-05-07 04:39 34.99375 136.73503 3253 ft 223 kts 97°
2026-05-07 04:39 34.99175 136.75350 2898 ft 219 kts 98°
2026-05-07 04:39 34.98615 136.77011 2524 ft 210 kts 133°
2026-05-07 04:40 34.97383 136.77830 2185 ft 200 kts 168°
2026-05-07 04:40 34.96030 136.78144 1859 ft 197 kts 169°
2026-05-07 04:40 34.94717 136.78450 1567 ft 189 kts 170°
2026-05-07 04:40 34.93450 136.78722 1287 ft 180 kts 169°
2026-05-07 04:41 34.92265 136.78999 1061 ft 166 kts 168°
2026-05-07 04:41 34.91174 136.79261 845 ft 155 kts 169°
2026-05-07 04:41 34.90163 136.79505 638 ft 143 kts 169°
2026-05-07 04:41 34.89212 136.79744 429 ft 136 kts 169°
2026-05-07 04:42 34.88281 136.79954 265 ft 134 kts 169°
2026-05-07 04:42 34.87373 136.80173 68 ft 132 kts 169°
2026-05-07 04:42 34.86552 136.80366 25 ft 94 kts 169°
2026-05-07 04:42 34.86079 136.80478 23 ft 59 kts 168°
2026-05-07 04:43 34.85807 136.80612 25 ft 32 kts 142°
2026-05-07 04:43 34.85741 136.80678 22 ft 0 kts 138°
2026-05-07 04:44 34.85739 136.80680 22 ft 2 kts 138°
2026-05-07 04:44 34.85678 136.80746 25 ft 21 kts 139°
2026-05-07 04:44 34.85568 136.80900 23 ft 18 kts 95°
2026-05-07 04:44 34.85591 136.81057 23 ft 19 kts 78°
2026-05-07 04:45 34.85616 136.81212 23 ft 18 kts 79°
2026-05-07 04:45 34.85602 136.81309 23 ft 7 kts 81°
2026-05-07 04:45 34.85615 136.81372 26 ft 8 kts 78°
2026-05-07 04:45 34.85620 136.81403 23 ft 1 kts 78°
2026-05-07 04:46 34.85620 136.81404 23 ft 0 kts 79°